Location: Camoruquito
(9.9001°N, 67.3564°W)
Time: 13:48:01
(UTC+00:00)

Cosmos 1939 Rocket - Pass Details

Date: 14 April 2024
Orbit: 515 x 558 km, 97.4° (Epoch: 28 May)

Event Time Altitude Azimuth Distance (km) Brightness Sun altitude
Rises 09:23:49 0° 353° (N) 2,625 6.4 -14.3°
Reaches altitude 10° 09:26:07 10° 341° (NNW) 1,743 5.3 -13.7°
Maximum altitude 09:29:19 27° 282° (WNW) 1,022 3.7 -12.9°
Enters shadow 09:31:20 17° 237° (WSW) 1,361 4.3 -12.4°
